Weather History for KDET - February, 2014

Change the Weather History Date:

Monday, February 10, 2014

  Actual Average Record
Temperature  
Mean Temperature 16 °F -  
Max Temperature 21 °F 31 °F 59 °F (2009)
Min Temperature 12 °F 18 °F -4 °F (1982)
Degree Days  
Heating Degree Days 48    
Moisture  
Dew Point 8 °F    
Average Humidity 64    
Maximum Humidity 81    
Minimum Humidity 50    
Precipitation  
Precipitation 0.00 in - - ()
Sea Level Pressure  
Sea Level Pressure 30.41 in    
Wind  
Wind Speed 6 mph (WNW)    
Max Wind Speed 10 mph    
Max Gust Speed -    
Visibility 9 miles    
Events Snow    
Averages and records for this station are not official NWS values.
T = Trace of Precipitation, MM = Missing Value Source: NWS Daily Summary

Daily Weather History Graph

Daily Weather History Graph

Search for Another Location

Airport or City:

Trip Planner

Search our weather history database for the weather conditions in past years. The results will help you decide how hot, cold, wet, or windy it might be!

Date:

Astronomy

Feb. 10, 2014 Rise Set
Actual Time 7:35 AM EST 5:57 PM EST
Civil Twilight 7:06 AM EST 6:27 PM EST
Nautical Twilight 6:32 AM EST 7:00 PM EST
Astronomical Twilight 6:00 AM EST 7:32 PM EST
Moon 2:24 PM EST (2/10) 4:29 AM EST (2/10)
Length of Visible Light 11h 20m
Length of Day
10h 22m
Waxing Gibbous, 84% of the Moon is Illuminated
Feb 10
Waxing Gibbous
Feb 14
Full
Feb 22
Last Quarter
Mar 1
New
Mar 8
First Quarter

Hourly Weather History & Observations

Time (EST) Temp. Windchill Dew Point Humidity Pressure Visibility Wind Dir Wind Speed Gust Speed Precip Events Conditions
12:53 AM 19.0 °F 10.0 °F 10.0 °F 68% 30.91 in 10.0 mi West 6.9 mph - N/A   Overcast
1:53 AM 19.0 °F 9.0 °F 10.9 °F 71% 30.19 in 10.0 mi West 8.1 mph - N/A   Overcast
2:53 AM 18.0 °F 9.8 °F 10.0 °F 71% 30.19 in 9.0 mi West 5.8 mph - N/A   Overcast
3:53 AM 18.0 °F 9.8 °F 10.0 °F 71% 30.20 in 10.0 mi West 5.8 mph - N/A   Overcast
4:53 AM 17.1 °F 10.0 °F 10.0 °F 74% 30.22 in 10.0 mi WNW 4.6 mph - N/A   Overcast
5:53 AM 15.1 °F 7.7 °F 9.0 °F 77% 30.23 in 9.0 mi WNW 4.6 mph - N/A   Mostly Cloudy
6:53 AM 12.9 °F 6.9 °F 8.1 °F 81% 30.25 in 9.0 mi West 3.5 mph - N/A   Clear
7:53 AM 12.0 °F 4.1 °F 7.0 °F 80% 30.27 in 7.0 mi West 4.6 mph - N/A   Clear
8:53 AM 14.0 °F 5.1 °F 8.1 °F 77% 30.30 in 7.0 mi West 5.8 mph - N/A   Clear
9:53 AM 17.1 °F 6.6 °F 9.0 °F 71% 30.31 in 9.0 mi WNW 8.1 mph - N/A   Clear
10:53 AM 19.0 °F 9.0 °F 9.0 °F 65% 31.06 in 10.0 mi WNW 8.1 mph - N/A   Partly Cloudy
11:53 AM 21.0 °F 11.4 °F 8.1 °F 57% 30.31 in 10.0 mi WNW 8.1 mph - N/A   Clear
12:53 PM 21.9 °F 11.7 °F 8.1 °F 55% 30.29 in 10.0 mi WSW 9.2 mph - N/A   Overcast
1:53 PM 21.9 °F 12.5 °F 8.1 °F 55% 30.27 in 10.0 mi NW 8.1 mph - N/A   Overcast
2:53 PM 21.9 °F 14.5 °F 6.1 °F 51% 31.02 in 10.0 mi WNW 5.8 mph - N/A   Overcast
3:53 PM 21.9 °F 14.5 °F 6.1 °F 51% 31.04 in 10.0 mi West 5.8 mph - N/A   Overcast
4:53 PM 21.0 °F 13.4 °F 5.0 °F 50% 30.30 in 10.0 mi WNW 5.8 mph - N/A   Overcast
5:53 PM 19.9 °F 11.1 °F 5.0 °F 52% 30.32 in 10.0 mi WNW 6.9 mph - N/A   Overcast
6:53 PM 19.9 °F 14.9 °F 7.0 °F 57% 30.34 in 10.0 mi WNW 3.5 mph - 0.00 in   Overcast
7:53 PM 19.9 °F 12.1 °F 8.1 °F 60% 30.35 in 10.0 mi NW 5.8 mph - N/A   Overcast
8:53 PM 19.0 °F 13.9 °F 7.0 °F 59% 30.36 in 10.0 mi NW 3.5 mph - N/A   Overcast
9:53 PM 18.0 °F 6.1 °F 8.1 °F 65% 30.37 in 5.0 mi WNW 10.4 mph - 0.00 in Snow Light Snow
10:53 PM 16.0 °F 5.3 °F 3.9 °F 59% 30.39 in 10.0 mi WNW 8.1 mph - 0.00 in   Overcast
11:53 PM 14.0 °F 6.5 °F 3.0 °F 62% 30.39 in 10.0 mi West 4.6 mph - N/A   Overcast